Flag for Canada Weather past 2 weeks in Kuujjuaq, Quebec, Canada

Now
19 °F

Partly sunny.


Feels Like: 3 °F
Forecast: N/A
Wind: 22 mph from Southwest

Location: Kuujjuaq


UV Index: N/A

Visibility: 15 mi


Pressure: 30.14 "Hg

Humidity: 49%

Dew point: 3 °F

Location of KuujjuaqLocation

Historic Weather in Kuujjuaq

°F

Kuujjuaq temperature yesterday

Maximum temperature yesterday: 14 °F (at 12:00 AM)
Minimum temperature yesterday: 3 °F (at 11:00 PM)
Average temperature yesterday: 9 °F

Past Weeks' High & Low Weather Summary

 TemperatureHumidityPressure
High37 °F (Apr 2, 5:00 PM)93% (Apr 6, 7:00 PM)30.47 "Hg (Apr 6, 7:00 PM)
Low-17 °F (Apr 14, 5:00 AM)39% (Apr 4, 1:00 PM)28.92 "Hg (Apr 11, 2:00 AM)
Average9 °F69%29.83 "Hg
* Reported Apr 2 5:00 PM — Apr 17 5:00 PM, Kuujjuaq, Weather by CustomWeather, © 2014

Note: Actual official high and low records may vary slightly from our data, if they occured in-between our weather recording intervals... More about our weather records

Advertising

Historic Weather Conditions — Data for Previous 24 hours

 ConditionsComfort  
Time TempWeatherWind HumidityBarometerVisibility
5:00 PM
Apr 17
19 °FOvercast.21 mph49%30.14 "Hg15 mi
4:00 PM19 °FLight snow. Overcast.30 mph49%30.13 "Hg15 mi
3:00 PM19 °FLight snow. Partly sunny.23 mph49%30.14 "Hg15 mi
2:00 PM16 °FLight snow. Partly sunny.26 mph53%30.14 "Hg15 mi
1:00 PM14 °FLight snow. Partly sunny.25 mph52%30.15 "Hg15 mi
12:00 PM10 °FLight snow. Overcast.25 mph61%30.16 "Hg12 mi
11:00 AM10 °FLight snow. Broken clouds.28 mph56%30.14 "Hg8 mi
10:00 AM7 °FLight snow. Mostly cloudy.28 mph66%30.15 "Hg5 mi
9:00 AM5 °FLight snow. Mostly cloudy.22 mph72%30.15 "Hg3 mi
8:00 AM3 °FLight snow. Overcast.18 mph72%30.13 "Hg1 mi
7:46 AM3 °FLight snow. Overcast.16 mph72%30.12 "Hg1 mi
7:00 AM3 °FSnow flurries. Broken clouds.18 mph60%30.11 "Hg15 mi
6:00 AM3 °FPartly cloudy.17 mph60%30.09 "Hg12 mi
5:00 AM1 °FLight snow. Passing clouds.14 mph71%30.05 "Hg6 mi
4:00 AM3 °FLight snow. Overcast.17 mph72%30.02 "Hg2 mi
3:00 AM3 °FLight snow. Passing clouds.18 mph72%29.98 "Hg2 mi
2:00 AM3 °FLight snow. Mostly cloudy.17 mph72%29.95 "Hg2 mi
1:00 AM3 °FLight snow. Overcast.23 mph72%29.90 "Hg2 mi
12:00 AM3 °FLight snow. Mostly cloudy.17 mph72%29.88 "Hg2 mi
11:00 PM
Apr 16
3 °FLight snow. Overcast.22 mph78%29.85 "Hg2 mi
10:00 PM5 °FLight snow. Overcast.23 mph72%29.81 "Hg2 mi
9:00 PM5 °FLight snow. Overcast.24 mph72%29.79 "Hg2 mi
8:00 PM7 °FLight snow. Mostly cloudy.21 mph72%29.76 "Hg2 mi
7:00 PM7 °FLight snow. Mostly cloudy.25 mph72%29.72 "Hg2 mi
6:00 PM9 °FLight snow. More clouds than sun.24 mph66%29.69 "Hg8 mi
Weather by CustomWeather, © 2014

See weather overview